STARLINK-37602, 69358

Orbit data source: Space-Track

STARLINK-37602, 69358 is a payload satellite owned by SpaceX/Seattle (US) in LEO that was launched on Thu, 04 Jun 2026 UTC via an FALCON 9 launch vehicle from the Air Force Eastern Test Range (AFETR). Payload-class satellites include a variety of spacecraft equipped with specific instruments for various scientific and technological missions. These include communications satellites like Starlink; space stations such as the ISS; scientific satellites like the Hubble; Earth observation satellites from companies like Planet Labs, Umbra, and HawkEye 360; GPS; miniature CubeSats for education and research; and military/defense satellites.

Loading next visibility...
Identifier
69358, 2026-123F
Orbit
LEO
Country
Flag of USUS
Related business
Manufacturer
SpaceX/Seattle
Mission
Operational spacecraft
Bus & Motor
STARLINK V2MO, Unknown motor
Mass
575 kg wet, ~530 kg dry
Launch date (UTC)
2026-06-04 (2 months ago)
Launch vehicle
FALCON 9
Launch site
Air Force Eastern Test Range (AFETR)
Object type
Payload
Rocket body
Debris
Shape & HBR
Unknown shape, 17.7 m
Radar Cross Section
Large (>1 m²)

Expand to show TLE details & history
Last TLE update: 18 hours ago

TLE from 18 hours ago
0 STARLINK-37602
1 69358U 26123F   26201.92763634  .00193433  00000-0  12358-2 0  9990
2 69358  53.1577  74.1429 0001739  21.3241 338.7851 15.75267391  7357
Epoch: 2026-07-20T22:15Z
TLE epoch observation values (Epoch: 2026-07-20T22:15:47.779Z)
Latitude
-0.00007°
Longitude
161.48911°
Altitude
343.698 km
Speed
7.704 km/s
True Right ascension
04h 56m 34s
True Declination
0° 00' 00"
Sunlit
Object was in daylight at epoch
Visualization orbit readout
Latitude
Unknown
Longitude
Unknown
Altitude
Unknown
Speed
Unknown
Apparent Right ascension
Unknown
Apparent Declination
Unknown
Sunlit
N/A
Visualization observer readout
Local Sidereal Time
04:50:03
Azimuth
Unknown
Elevation
Unknown
Doppler factor
Unknown
Orbital elements
Apogee altitude
345.301 km
Perigee altitude
342.963 km
Semi-major axis
6,722.269 km
Eccentricity
0.00017
Inclination
53.1577°
RAAN
74.1429°
Arg. of periapsis
21.3241°
True anomaly
338.77789°
Mean anomaly
338.7851°
Eccentric anomaly
338.78149°
Mean motion
3.93794 °/min
Orbital period
91.42 mins
BSTAR
0.0012358
Loading maneuver chart data...
Computing Atmospheric mass density...
Loading historical data...
Loading historical data...
Loading historical data...
Loading historical data...
Loading historical data...
Loading historical data...
Loading historical data...

Documentation

Showing up to 5 results
|